Voltar ao catálogo

NOAA 16 DEB

AtivoPO
NORAD 42347·DEBRIS·🇺🇸 United States

Lançado Sep 21, 2000 de Vandenberg Space Force Base

Loading…

Próximas Passagens (próximas 24 horas)

TLE

AtualizadoSource: Space-Track

Época: Sep 13, 2026, 08:37 UTC

1 42347U 00055QP  26256.35924581  .00004190  00000-0  98844-3 0  9998
2 42347  98.9575 101.1115 0031803 207.0889 152.8647 14.54521059555356

Acompanhe NOAA 16 DEB em tempo real com AllMySat

Download on the App Store